Silver Bay, MN

6:29 AM CST on February 24, 2018 (GMT -0600)
Silver Bay Municipal

Weather History for KBFW - September, 2013

Change the Weather History Date:

Saturday, September 28, 2013

  Actual Average Record
Temperature  
Mean Temperature 55 °F -  
Max Temperature 64 °F 55 °F 77 °F (2014)
Min Temperature 44 °F 34 °F 28 °F (2012)
Degree Days  
Heating Degree Days 10    
Growing Degree Days 5 (Base 50)    
Moisture  
Dew Point 49 °F    
Average Humidity 75    
Maximum Humidity 88    
Minimum Humidity 59    
Precipitation  
Precipitation 0.51 in - - ()
Sea Level Pressure  
Sea Level Pressure 29.72 in    
Wind  
Wind Speed 3 mph (South)    
Max Wind Speed 16 mph    
Max Gust Speed 26 mph    
Visibility 9 miles    
Events Rain    
Averages and records for this station are not official NWS values.
T = Trace of Precipitation, MM = Missing Value Source: NWS Daily Summary

Daily Weather History Graph

Daily Weather History Graph

Search for Another Location

Airport or City:

Trip Planner

Search our weather history database for the weather conditions in past years. The results will help you decide how hot, cold, wet, or windy it might be!

Date:

Astronomy

Sep. 28, 2013 Rise Set
Actual Time 7:00 AM CDT 6:50 PM CDT
Civil Twilight 6:30 AM CDT 7:21 PM CDT
Nautical Twilight 5:54 AM CDT 7:56 PM CDT
Astronomical Twilight 5:18 AM CDT 8:32 PM CDT
Moon 12:28 AM CDT (9/28) 3:28 PM CDT (9/28)
Length of Visible Light 12h 50m
Length of Day
11h 49m
Waning Crescent, 36% of the Moon is Illuminated
Sep 28
Waning Crescent
Oct 4
New
Oct 11
First Quarter
Oct 18
Full
Oct 26
Last Quarter

Hourly Weather History & Observations

Time (CDT) Temp. Windchill Dew Point Humidity Pressure Visibility Wind Dir Wind Speed Gust Speed Precip Events Conditions
12:13 AM 62.6 °F - 53.6 °F 72% 29.85 in 10.0 mi Calm Calm - N/A   Clear
12:33 AM 60.8 °F - 53.6 °F 77% 29.84 in 10.0 mi Calm Calm - N/A   Clear
12:53 AM 60.8 °F - 53.6 °F 77% 29.84 in 10.0 mi Calm Calm - N/A   Clear
1:13 AM 59.0 °F - 53.6 °F 82% 29.84 in 10.0 mi Calm Calm - N/A   Clear
1:33 AM 57.2 °F - 53.6 °F 88% 29.84 in 10.0 mi Calm Calm - N/A   Clear
1:53 AM 57.2 °F - 53.6 °F 88% 29.84 in 10.0 mi Calm Calm - N/A   Clear
2:13 AM 59.0 °F - 53.6 °F 82% 29.83 in 10.0 mi Calm Calm - N/A   Clear
2:33 AM 60.8 °F - 51.8 °F 72% 29.83 in 10.0 mi Calm Calm - N/A   Clear
2:53 AM 62.6 °F - 51.8 °F 68% 29.82 in 10.0 mi Calm Calm - N/A   Clear
3:13 AM 62.6 °F - 48.2 °F 59% 29.82 in 10.0 mi SSE 3.5 mph - N/A   Clear
3:33 AM 60.8 °F - 48.2 °F 63% 29.82 in 10.0 mi SSE 3.5 mph - N/A   Clear
3:53 AM 57.2 °F - 50.0 °F 77% 29.81 in 10.0 mi Calm Calm - N/A   Clear
4:13 AM 60.8 °F - 48.2 °F 63% 29.80 in 10.0 mi SE 4.6 mph - N/A   Clear
4:33 AM 60.8 °F - 48.2 °F 63% 29.80 in 10.0 mi SE 3.5 mph - N/A   Clear
4:53 AM 60.8 °F - 48.2 °F 63% 29.79 in 10.0 mi Calm Calm - N/A   Clear
5:13 AM 59.0 °F - 48.2 °F 67% 29.79 in 10.0 mi SSE 3.5 mph - N/A   Clear
5:33 AM 59.0 °F - 46.4 °F 63% 29.78 in 10.0 mi Calm Calm - N/A   Clear
5:53 AM 57.2 °F - 48.2 °F 72% 29.78 in 10.0 mi Calm Calm - N/A   Clear
6:13 AM 55.4 °F - 50.0 °F 82% 29.77 in 10.0 mi Calm Calm - N/A   Clear
6:33 AM 55.4 °F - 50.0 °F 82% 29.77 in 10.0 mi Calm Calm - N/A   Scattered Clouds
6:53 AM 55.4 °F - 48.2 °F 77% 29.77 in 10.0 mi North 4.6 mph - N/A   Scattered Clouds
7:13 AM 57.2 °F - 48.2 °F 72% 29.76 in 10.0 mi NE 4.6 mph - N/A   Clear
7:33 AM 55.4 °F - 50.0 °F 82% 29.75 in 10.0 mi NE 3.5 mph - N/A   Clear
7:53 AM 59.0 °F - 50.0 °F 72% 29.75 in 10.0 mi East 4.6 mph - N/A   Clear
8:13 AM 60.8 °F - 48.2 °F 63% 29.74 in 10.0 mi Calm Calm - N/A   Clear
8:33 AM 60.8 °F - 48.2 °F 63% 29.74 in 10.0 mi East 3.5 mph - N/A   Clear
8:53 AM 62.6 °F - 48.2 °F 59% 29.72 in 10.0 mi East 4.6 mph - N/A   Clear
9:13 AM 62.6 °F - 50.0 °F 63% 29.71 in 10.0 mi ESE 4.6 mph - N/A   Clear
9:33 AM 64.4 °F - 50.0 °F 59% 29.71 in 10.0 mi SE 4.6 mph - N/A   Clear
9:53 AM 64.4 °F - 50.0 °F 59% 29.70 in 10.0 mi SE 6.9 mph - N/A   Clear
10:13 AM 64.4 °F - 50.0 °F 59% 29.68 in 10.0 mi SE 5.8 mph - N/A   Clear
10:33 AM 64.4 °F - 51.8 °F 64% 29.67 in 10.0 mi ESE 6.9 mph - N/A   Clear
10:53 AM 64.4 °F - 51.8 °F 64% 29.66 in 10.0 mi East 6.9 mph - N/A   Clear
11:13 AM 64.4 °F - 51.8 °F 64% 29.65 in 10.0 mi SE 4.6 mph - N/A   Scattered Clouds
11:33 AM 62.6 °F - 51.8 °F 68% 29.64 in 10.0 mi East 3.5 mph - N/A   Scattered Clouds
11:53 AM 62.6 °F - 51.8 °F 68% 29.61 in 10.0 mi East 4.6 mph - N/A   Clear
12:13 PM 64.4 °F - 51.8 °F 64% 29.59 in 10.0 mi East 5.8 mph - N/A   Clear
12:33 PM 62.6 °F - 51.8 °F 68% 29.58 in 7.0 mi East 4.6 mph - N/A Rain Rain
12:53 PM 60.8 °F - 55.4 °F 82% 29.58 in 1.5 mi Calm Calm - 0.05 in Rain Rain
1:13 PM 59.0 °F - 55.4 °F 88% 29.58 in 4.0 mi South 3.5 mph - 0.21 in Rain Rain
1:33 PM 60.8 °F - 55.4 °F 82% 29.57 in 5.0 mi SSE 4.6 mph - 0.33 in Rain Rain
1:53 PM 60.8 °F - 55.4 °F 82% 29.56 in 5.0 mi South 9.2 mph - N/A Rain Rain
2:14 PM 60.8 °F - 57.2 °F 88% 29.55 in 7.0 mi SSE 12.7 mph 17.3 mph N/A Rain Light Rain
2:33 PM 60.8 °F - 57.2 °F 88% 29.54 in 5.0 mi South 13.8 mph 18.4 mph N/A Rain Rain
2:53 PM 60.8 °F - 57.2 °F 88% 29.53 in 1.8 mi South 16.1 mph 21.9 mph 0.01 in Rain Heavy Rain
3:13 PM 60.8 °F - 57.2 °F 88% 29.55 in 3.0 mi SSW 13.8 mph 26.5 mph 0.07 in Rain Rain
3:33 PM 57.2 °F - 53.6 °F 88% 29.55 in 7.0 mi SW 8.1 mph 17.3 mph 0.09 in Rain Rain
3:53 PM 55.4 °F - 51.8 °F 88% 29.58 in 5.0 mi WSW 10.4 mph 18.4 mph 0.01 in Rain Rain
4:13 PM 53.6 °F - 48.2 °F 82% 29.60 in 10.0 mi SW 6.9 mph 19.6 mph 0.03 in Rain Light Rain
4:33 PM 53.6 °F - 48.2 °F 82% 29.61 in 10.0 mi SW 8.1 mph - 0.03 in   Clear
4:53 PM 53.6 °F - 46.4 °F 77% 29.64 in 10.0 mi SW 9.2 mph - N/A Rain Light Rain
5:13 PM 53.6 °F - 46.4 °F 77% 29.64 in 10.0 mi SW 9.2 mph 19.6 mph N/A   Clear
5:34 PM 53.6 °F - 46.4 °F 77% 29.65 in 10.0 mi SW 5.8 mph - N/A   Clear
5:53 PM 53.6 °F - 46.4 °F 77% 29.67 in 10.0 mi SW 6.9 mph - N/A   Clear
6:13 PM 53.6 °F - 44.6 °F 72% 29.68 in 10.0 mi SW 9.2 mph 16.1 mph N/A   Clear
6:33 PM 51.8 °F - 46.4 °F 82% 29.70 in 10.0 mi SSW 5.8 mph - N/A   Scattered Clouds
6:53 PM 51.8 °F - 46.4 °F 82% 29.71 in 10.0 mi SW 5.8 mph - N/A   Scattered Clouds
7:13 PM 51.8 °F - 44.6 °F 76% 29.71 in 10.0 mi WSW 6.9 mph - N/A   Scattered Clouds
7:33 PM 51.8 °F - 44.6 °F 76% 29.72 in 10.0 mi SW 4.6 mph - N/A   Scattered Clouds
7:53 PM 51.8 °F - 44.6 °F 76% 29.73 in 10.0 mi SW 3.5 mph - N/A   Mostly Cloudy
8:13 PM 51.8 °F - 44.6 °F 76% 29.74 in 10.0 mi SW 5.8 mph - N/A   Scattered Clouds
8:33 PM 50.0 °F - 44.6 °F 82% 29.75 in 10.0 mi SW 6.9 mph - N/A   Scattered Clouds
8:53 PM 50.0 °F - 42.8 °F 76% 29.75 in 10.0 mi SW 6.9 mph - N/A   Clear
9:13 PM 48.2 °F - 42.8 °F 82% 29.76 in 10.0 mi SW 6.9 mph - N/A   Clear
9:33 PM 48.2 °F - 42.8 °F 82% 29.77 in 10.0 mi SW 8.1 mph - N/A   Clear
9:53 PM 48.2 °F - 41.0 °F 76% 29.78 in 10.0 mi WSW 6.9 mph 16.1 mph N/A   Clear
10:13 PM 48.2 °F - 41.0 °F 76% 29.79 in 10.0 mi WSW 5.8 mph - N/A   Clear
10:33 PM 46.4 °F 43.5 °F 39.2 °F 76% 29.79 in 10.0 mi WSW 5.8 mph - N/A   Clear
10:53 PM 46.4 °F 44.3 °F 39.2 °F 76% 29.80 in 10.0 mi SW 4.6 mph - N/A   Clear
11:13 PM 46.4 °F - 39.2 °F 76% 29.81 in 10.0 mi Calm Calm - N/A   Clear
11:33 PM 46.4 °F 44.3 °F 39.2 °F 76% 29.81 in 10.0 mi SW 4.6 mph - N/A   Clear
11:53 PM 44.6 °F 43.1 °F 39.2 °F 81% 29.82 in 10.0 mi SW 3.5 mph - N/A   Clear